Location: PSU-Greenbush Astrophysical Observatory
(37.5140°N, 94.9880°W)
Time: 19:10:43
(UTC-06:00)

deb Explorer IX - Pass Details

Date: 28 January 2020
Orbit: 549 x 1099 km, 38.8° (Epoch: 27 February)

Event Time Altitude Azimuth Distance (km) Brightness Sun altitude
Rises 22:32:42 0° 269° (W) 3,700 ? -57.3°
Enters shadow 22:32:54 - 269° (W) 3,631 ? -57.3°
Reaches altitude 10° 22:35:17 10° 270° (W) 2,811 - -57.8°
Maximum altitude 22:42:16 81° 358° (N) 1,099 - -59.0°
Drops below altitude 10° 22:49:38 10° 86° (E) 2,945 - -60.2°
Sets 22:52:23 0° 88° (E) 3,886 - -60.6°
